MOLNIYA 1-56

Last updated on Oct. 29, 2020, 5:52 a.m. UTC

1 13890U 83019A   20301.37953203 -.00001305  00000-0  00000-0 0  9990
2 13890  63.1813 108.0273 7208271 260.6442  16.0772  1.99893755274650
UTC
Height (km)
Latitude
Longitude
Inclination
Orbital Period
UTC large
Height (km)
Speed (km/s)
/
Latitude / Longitude
Inclination (degrees)
Orbital Period (minutes)
Azimuth
Elevation
Range (km)
Doppler Factor
iOS Compass Heading
iOS Angle

Next 30 passes for location: Hong Kong

Rise time Rise Azimuth (degrees) Set time Set Azimuth (degrees) Duration Max altitude (degrees)

No matching passes for this satellites